TimeCST,TemperatureF,Dew PointF,Humidity,Sea Level PressureIn,VisibilityMPH,Wind Direction,Wind SpeedMPH,Gust SpeedMPH,PrecipitationIn,Events,Conditions,WindDirDegrees,DateUTC
12:00 AM,79,74,81,29.88,12,ESE,3.5,,,,Mostly Cloudy,120,2013-02-24 06:00:00
3:00 AM,78,74,85,29.83,12,ESE,2.3,,,,Partly Cloudy,110,2013-02-24 09:00:00
5:00 AM,77.0,75.2,94,29.83,6.2,East,4.6,-,N/A,,Partly Cloudy,100,2013-02-24 11:00:00
6:00 AM,77,75,90,29.84,12,East,3.5,,,,Scattered Clouds,100,2013-02-24 12:00:00
6:00 AM,77.0,75.2,94,29.83,6.2,East,3.5,-,N/A,,Partly Cloudy,100,2013-02-24 12:00:00
7:00 AM,77.0,75.2,94,29.86,6.2,East,3.5,-,N/A,,Partly Cloudy,90,2013-02-24 13:00:00
8:00 AM,80.6,77.0,89,29.86,6.2,East,3.5,-,N/A,,Scattered Clouds,90,2013-02-24 14:00:00
9:00 AM,83,75,71,29.90,10,ESE,6.9,,,,Haze,110,2013-02-24 15:00:00
9:00 AM,82.4,75.2,79,29.89,6.2,ESE,6.9,-,N/A,,Mostly Cloudy,110,2013-02-24 15:00:00
10:00 AM,84.2,75.2,74,29.89,6.2,East,6.9,-,N/A,,Mostly Cloudy,100,2013-02-24 16:00:00
11:00 AM,84.2,75.2,74,29.87,6.2,East,8.1,-,N/A,,Mostly Cloudy,100,2013-02-24 17:00:00
12:00 PM,86,76,65,29.85,12,ESE,5.8,,,,Haze,110,2013-02-24 18:00:00
12:00 PM,86.0,75.2,70,29.85,6.2,ESE,5.8,-,N/A,,Scattered Clouds,110,2013-02-24 18:00:00
1:00 PM,86.0,73.4,66,29.82,6.2,East,9.2,-,N/A,,Partly Cloudy,80,2013-02-24 19:00:00
2:00 PM,86.0,75.2,70,29.79,6.2,ENE,10.4,-,N/A,,Scattered Clouds,70,2013-02-24 20:00:00
3:00 PM,86.0,75.2,70,29.77,6.2,East,10.4,-,N/A,,Scattered Clouds,90,2013-02-24 21:00:00
4:00 PM,84.2,75.2,74,29.77,6.2,East,10.4,-,N/A,,Scattered Clouds,80,2013-02-24 22:00:00
5:00 PM,82.4,75.2,79,29.77,6.2,ENE,8.1,-,N/A,,Scattered Clouds,70,2013-02-24 23:00:00
6:00 PM,82,74,70,29.81,9,East,5.8,,,,Haze,80,2013-02-25 00:00:00
6:00 PM,82.4,73.4,74,29.80,6.2,East,5.8,-,N/A,,Mostly Cloudy,80,2013-02-25 00:00:00
9:00 PM,79,75,83,29.86,9,East,6.9,,,,Haze,100,2013-02-25 03:00:00